星链-35186(STARLINK-35186)

导读 | 豆包AI

STARLINK-35186是美国SpaceX星链星座的一颗卫星,于2025年9月13日发射,属于星链星座部署计划中的一环。星链项目旨在构建全球卫星互联网星座,为全球偏远地区、海洋、航空等场景提供高速低延迟的宽带互联网接入服务,该卫星将参与完成星座组网,进一步完善星链的全球通信覆盖能力。

基本信息
目录编号:
65611
目录名称:
STARLINK-35186
国际标识:
2025-207V
轨道中心:
EARTH
卫星名称:
星链-35186
卫星全名:
星链-35186(STARLINK-35186)
卫星状态:
在轨 (已飞行203 天)
发射日期:
2025-09-13 UTC
国别 :
美国 (US)
星等 :
--
轨道信息
数据来源 国际轨道数据
星历时间: 2026-04-04T02:55:31+0800
16小时前
查看轨道信息
半长轴: 6927.677km
偏心率: 0.000047
轨道倾角: 97.604°
近地点辐角 209.412°
升交点赤经 163.340°
平近点角 150.708°
近地点: 549.214km
远地点: 549.866km
周期: 95.640分钟
每日圈数: 15.056406
详细信息
固有亮度:
5
最大亮度:
2.5
卫星平台:
Starlink V1.0
覆盖范围:
全球
运营商:
太空探索技术公司
运营商所在国:
美国
制造商(研发单位):
太空探索技术公司
制造商所在国:
美国
使用方式:
暂无
卫星简介
Starlink 计划是 SpaceX 推出的全球卫星互联网项目,通过发射低轨道卫星,为全球尤其是偏远地区提供高速、低延迟的互联网服务。自 2019 年起,Starlink 已部署数千颗卫星,旨在缩小全球数字鸿沟,推动互联网普及。该项目还为军事、航空等行业提供通信支持,带来广泛经济效益。
2D轨道图
3D轨道图
轨道高度分析图
轨道倾角分析图
轨道综合分析图
查看轨道综合分析图